sat.trackr.live / text

‹ back to catalog

GRUS-3C

NORAD 69891 · 2026-156Y

PAYLOAD ACTIVE UNKNOWN

§ Identity

Operator
Country
JPN
Launch date
2026-07-07
Launch site
AFWTR
Launch vehicle
Mass (kg)
RCS (m²)

External: N2YO · Heavens-Above · Gunter

§ Orbital elements

Epoch: 2026-09-20T03:24:12.461760Z

Period
96.54 min
Inclination
97.7426°
Eccentricity
0.0004686
Mean motion
14.91618848 rev/d
Perigee alt
589.6 km
Apogee alt
596.2 km
Semi-major
6,971.0 km
B*
7.8760e-5
RAAN
162.2937°
Arg perigee
252.1717°
Mean anomaly
107.8991°
Rev number
1,115

§ Raw data

GRUS-3C1 69891U 26156Y   26263.14181090  .00000735  00000+0  78760-4 0  99922 69891  97.7426 162.2937 0004686 252.1717 107.8991 14.91618848 11152

JSON: /api/v1/satellites/69891 · /tle

For live sub-satellite position, see the globe view (requires WebGL).

§ Visibility from observer

Set your observer location to see the next 7 days of passes ≥ 10°. The values pass through the URL so the page stays shareable.

No JS? Fill the form by hand. The geolocation button needs JavaScript.